sat.trackr.live / text

‹ back to catalog

STARLINK-3757

NORAD 52539 · 2022-051G

PAYLOAD ACTIVE UNKNOWN

§ Identity

Operator
Country
US
Launch date
2022-05-13
Launch site
AFWTR
Launch vehicle
Mass (kg)
RCS (m²)

Purposes: comms

External: N2YO · Heavens-Above · Gunter

§ Orbital elements

Epoch: 2026-09-19T18:52:08.753088Z

Period
93.90 min
Inclination
53.1605°
Eccentricity
0.0001210
Mean motion
15.33548053 rev/d
Perigee alt
464.4 km
Apogee alt
466.1 km
Semi-major
6,843.4 km
B*
5.2641e-5
RAAN
325.2536°
Arg perigee
88.1324°
Mean anomaly
271.9817°
Rev number
24,091

§ Raw data

STARLINK-37571 52539U 22051G   26262.78621242  .00001359  00000+0  52641-4 0  99932 52539  53.1605 325.2536 0001210  88.1324 271.9817 15.33548053240910

JSON: /api/v1/satellites/52539 · /tle

For live sub-satellite position, see the globe view (requires WebGL).

§ Visibility from observer

Set your observer location to see the next 7 days of passes ≥ 10°. The values pass through the URL so the page stays shareable.

No JS? Fill the form by hand. The geolocation button needs JavaScript.